Tracking 29892 objects as of 21-Nov-2024
HD Live streaming from Space Station
objects crossing your sky now

FENGYUN 1C DEB

Track FENGYUN 1C DEB now!
10-day predictions


NORAD ID: 31177
Int'l Code: 1999-025BJF
Perigee: 817.4 km
Apogee: 1,284.7 km
Inclination: 98.8 °
Period: 106.1 minutes
Semi major axis: 7422 km
RCS: 0.0107 m2 (small)
Launch date: May 10, 1999
Source: People's Republic of China (PRC)
Launch site: Taiyaun Space Center, China (TSC)

Note: This is SATELLITE DEBRIS
Your satellite tracking list
Your tracking list is empty




NASA's NSSDC Master Catalog

Two Line Element Set (TLE):
1 31177U 99025BJF 24325.34163973  .00005828  00000-0  59050-2 0  9990
2 31177  98.7642 272.6833 0314787 244.1473 273.7964 13.57732731609454
Source of the keplerian elements: AFSPC